�v������,���r���O(���x),�����t���O,���r���O(���x),�����t���O,��1(���x),�����t���O,��2���x),�����t���O,�O�C���x,�����t���O,�������x,�����t���O,�C�ۑ�(���x),�����t���O,�C�ۑ�(���x),�����t���O
2/1/2003 0:00,15.3,0,44,0,10.3,0,8.4,0,0.6,0,5.7,0,0.4,0,64.8,0
2/1/2003 0:15,14.8,0,44.2,0,10.3,0,8.3,0,0.7,0,5.8,0,0.4,0,65.3,0
2/1/2003 0:30,14.5,0,44.5,0,10.3,0,8.2,0,0.7,0,5.9,0,0.3,0,65.8,0
2/1/2003 0:45,14.1,0,44.7,0,10.3,0,8.1,0,0.6,0,5.9,0,0.3,0,66.3,0
2/1/2003 1:00,13.8,0,44.8,0,10.2,0,8,0,0.6,0,5.8,0,0.3,0,66.8,0
2/1/2003 1:15,13.5,0,45,0,10.2,0,7.9,0,0.5,0,6.3,0,0.4,0,65.6,0
2/1/2003 1:30,13.2,0,45.1,0,10.2,0,7.8,0,0.4,0,6.4,0,0.5,0,64.3,0
2/1/2003 1:45,12.9,0,45.3,0,10.2,0,7.7,0,0.3,0,6.5,0,0.7,0,63.1,0
2/1/2003 2:00,12.7,0,45.4,0,10.1,0,7.7,0,0.3,0,6.6,0,0.8,0,61.8,0
2/1/2003 2:15,12.5,0,45.4,0,10.1,0,7.6,0,0.2,0,6.7,0,0.8,0,59.8,0
2/1/2003 2:30,12.2,0,45.6,0,10,0,7.6,0,0.2,0,6.8,0,0.8,0,57.8,0
2/1/2003 2:45,12,0,45.7,0,10,0,7.5,0,0.2,0,6.9,0,0.9,0,55.8,0
2/1/2003 3:00,11.8,0,45.8,0,9.9,0,7.5,0,0.2,0,6.9,0,0.9,0,53.8,0
2/1/2003 3:15,11.5,0,45.9,0,9.9,0,7.4,0,0.1,0,7,0,0.7,0,54,0
2/1/2003 3:30,11.4,0,46,0,9.9,0,7.3,0,-0.1,0,6.3,0,0.6,0,54.3,0
2/1/2003 3:45,11.1,0,46.1,0,9.8,0,7.2,0,-0.2,0,6.3,0,0.4,0,54.5,0
2/1/2003 4:00,11,0,46,0,9.8,0,7.2,0,-0.3,0,6.4,0,0.3,0,54.8,0
2/1/2003 4:15,10.8,0,46.1,0,9.7,0,7.1,0,-0.3,0,6.5,0,0,0,56,0
2/1/2003 4:30,10.5,0,46.1,0,9.7,0,7,0,-0.5,0,6.6,0,-0.4,0,57.3,0
2/1/2003 4:45,10.4,0,46.1,0,9.6,0,7,0,-0.4,0,6.6,0,-0.7,0,58.5,0
2/1/2003 5:00,10.2,0,46.2,0,9.6,0,6.9,0,-0.3,0,6.7,0,-1,0,59.8,0
2/1/2003 5:15,10,0,46.1,0,9.6,0,6.8,0,-0.3,0,6.8,0,-0.9,0,60.3,0
2/1/2003 5:30,9.8,0,45.7,0,9.5,0,6.8,0,-0.2,0,6.8,0,-0.8,0,60.8,0
2/1/2003 5:45,9.6,0,45.2,0,9.5,0,6.7,0,-0.2,0,6.8,0,-0.7,0,61.3,0
2/1/2003 6:00,9.5,0,45.1,0,9.4,0,6.6,0,-0.1,0,6.9,0,-0.6,0,61.8,0
2/1/2003 6:15,9.4,0,45.2,0,9.5,0,6.6,0,-0.1,0,6.1,0,-0.6,0,62,0
2/1/2003 6:30,9.3,0,45.4,0,9.4,0,6.5,0,-0.2,0,6.2,0,-0.7,0,62.3,0
2/1/2003 6:45,13.2,0,37.7,0,9.3,0,6.4,0,-0.4,0,6.2,0,-0.7,0,62.5,0
2/1/2003 7:00,16.2,0,32.7,0,9.3,0,6.4,0,-0.4,0,6.2,0,-0.8,0,62.8,0
2/1/2003 7:15,18,0,31.5,0,9.5,0,6.3,0,-0.3,0,5.7,0,-0.4,0,62,0
2/1/2003 7:30,17.2,0,32.1,0,9.5,0,6.3,0,-0.2,0,5.1,0,0,0,61.3,0
2/1/2003 7:45,19.3,0,34.1,0,9.4,0,6.4,0,0.1,0,5.1,0,0.3,0,60.5,0
2/1/2003 8:00,19.5,0,35,0,9.3,0,6.5,0,0.6,0,5.2,0,0.7,0,59.8,0
2/1/2003 8:15,19.9,0,36.2,0,9.2,0,6.6,0,1.2,0,5.2,0,1.2,0,57.3,0
2/1/2003 8:30,20.6,0,36.4,0,9.5,0,6.8,0,1.7,0,5.3,0,1.7,0,54.8,0
2/1/2003 8:45,20.5,0,35.9,0,10.1,0,7,0,2,0,5.4,0,2.3,0,52.3,0
2/1/2003 9:00,20.9,0,36.8,0,10.5,0,7.6,0,2.5,0,4.9,0,2.8,0,49.8,0
2/1/2003 9:15,18.7,0,38.9,0,10.3,0,8,0,3.1,0,4.9,0,3.2,0,47.3,0
2/1/2003 9:30,17.8,0,38.1,0,10.3,0,8.5,0,3.6,0,5,0,3.7,0,44.8,0
2/1/2003 9:45,13.7,0,34.4,0,10.8,0,8.9,0,4,0,5.1,0,4.1,0,42.3,0
2/1/2003 10:00,12.6,0,30.5,0,10.7,0,9,0,4.4,0,5.3,0,4.6,0,39.8,0
2/1/2003 10:15,13.7,0,33.8,0,11.1,0,9.1,0,4.6,0,5.4,0,4.7,0,39.3,0
2/1/2003 10:30,14.4,0,35.9,0,11.6,0,9.3,0,4.9,0,5.5,0,4.8,0,38.8,0
2/1/2003 10:45,14.6,0,37.1,0,11.6,0,9.4,0,5.2,0,5.6,0,4.9,0,38.3,0
2/1/2003 11:00,14.9,0,37.5,0,11.6,0,9.5,0,5.6,0,5.7,0,5,0,37.8,0
2/1/2003 11:15,15.2,0,38.4,0,11.6,0,9.7,0,6,0,5.5,0,5.2,0,36.5,0
2/1/2003 11:30,15.4,0,38.7,0,11.8,0,9.9,0,6.3,0,5.6,0,5.5,0,35.3,0
2/1/2003 11:45,15.8,0,38.2,0,12.3,0,10.3,0,6.8,0,5.7,0,5.7,0,34,0
2/1/2003 12:00,15.2,0,38,0,12.6,0,10.6,0,6.8,0,5.8,0,6,0,32.8,0
2/1/2003 12:15,16.6,0,41.3,0,12.7,0,10.8,0,6.9,0,5.9,0,5.7,0,32.8,0
2/1/2003 12:30,16.9,0,42.9,0,12.7,0,11,0,6.9,0,6.1,0,5.5,0,32.8,0
2/1/2003 12:45,17.1,0,42.4,0,12.6,0,11.1,0,6.9,0,5.2,0,5.2,0,32.8,0
2/1/2003 13:00,17.1,0,41.2,0,12.5,0,11.2,0,7,0,5.3,0,5,0,32.8,0
2/1/2003 13:15,17.2,0,41.7,0,12.4,0,11.3,0,7.2,0,5.3,0,5.4,0,32.3,0
2/1/2003 13:30,17.2,0,41.6,0,12.3,0,11.4,0,7.2,0,4.9,0,5.8,0,31.8,0
2/1/2003 13:45,17.1,0,41.2,0,12.2,0,11.5,0,7.3,0,5,0,6.3,0,31.3,0
2/1/2003 14:00,16.8,0,40.5,0,11.9,0,11.5,0,7.4,0,5.1,0,6.7,0,30.8,0
2/1/2003 14:15,16.6,0,40,0,11.5,0,11.5,0,7.4,0,5.2,0,6.2,0,32,0
2/1/2003 14:30,16.5,0,40.8,0,11.5,0,11.4,0,7.5,0,5.3,0,5.6,0,33.3,0
2/1/2003 14:45,16.4,0,40.9,0,11.5,0,11.2,0,7.5,0,5.4,0,5.1,0,34.5,0
2/1/2003 15:00,16.4,0,41.1,0,11.3,0,11,0,7.4,0,5.6,0,4.6,0,35.8,0
2/1/2003 15:15,16.2,0,41.9,0,11.2,0,10.8,0,6.8,0,5.7,0,4.5,0,35.8,0
2/1/2003 15:30,16,0,42.4,0,11.1,0,10.6,0,6.3,0,5.8,0,4.4,0,35.8,0
2/1/2003 15:45,15.8,0,41.8,0,11,0,10.4,0,6.1,0,5.3,0,4.3,0,35.8,0
2/1/2003 16:00,15.5,0,41.6,0,10.9,0,10.2,0,5.8,0,5,0,4.2,0,35.8,0
2/1/2003 16:15,15.1,0,42.3,0,10.7,0,10,0,5.6,0,5.1,0,3.8,0,37.5,0
2/1/2003 16:30,18.2,0,36.1,0,10.6,0,9.9,0,5.4,0,5.2,0,3.5,0,39.3,0
2/1/2003 16:45,18.6,0,35.3,0,10.4,0,9.8,0,5,0,5.3,0,3.1,0,41,0
2/1/2003 17:00,18.8,0,34.9,0,10.3,0,9.6,0,4.5,0,5.4,0,2.8,0,42.8,0
2/1/2003 17:15,19.3,0,34,0,10.1,0,9.5,0,4.2,0,5.5,0,2.6,0,44,0
2/1/2003 17:30,18.8,0,32.5,0,10,0,9.3,0,3.6,0,5.6,0,2.3,0,45.3,0
2/1/2003 17:45,18.9,0,30.5,0,9.9,0,9.1,0,3.1,0,5.6,0,2.1,0,46.5,0
2/1/2003 18:00,19,0,29.9,0,9.9,0,9,0,2.8,0,5.3,0,1.9,0,47.8,0
2/1/2003 18:15,19.9,0,32.5,0,9.8,0,8.9,0,2.7,0,5.1,0,1.7,0,49,0
2/1/2003 18:30,19,0,32.1,0,9.8,0,8.7,0,2.4,0,-26.3,0,1.5,0,50.3,0
2/1/2003 18:45,21,0,32.1,0,9.8,0,8.6,0,2.2,0,-26.8,0,1.4,0,51.5,0
2/1/2003 19:00,20.6,0,33.7,0,9.8,0,8.5,0,2,0,-24.4,0,1.2,0,52.8,0
2/1/2003 19:15,20.8,0,35.2,0,9.8,0,8.4,0,1.8,0,-26.4,0,1.1,0,54,0
2/1/2003 19:30,21.1,0,36.4,0,9.7,0,8.3,0,1.7,0,5,0,1,0,55.3,0
2/1/2003 19:45,19.4,0,31.3,0,9.7,0,8.2,0,1.5,0,4.8,0,0.9,0,56.5,0
2/1/2003 20:00,19.4,0,29.9,0,9.7,0,8.1,0,1.3,0,4.7,0,0.8,0,57.8,0
2/1/2003 20:15,21,0,30,0,9.6,0,8,0,1.1,0,4.7,0,0.8,0,57.5,0
2/1/2003 20:30,21.1,0,31.6,0,9.6,0,7.9,0,0.9,0,4.8,0,0.7,0,57.3,0
2/1/2003 20:45,21.3,0,32.3,0,9.6,0,7.9,0,0.6,0,4.9,0,0.7,0,57,0
2/1/2003 21:00,20.9,0,33.9,0,9.5,0,7.8,0,0.4,0,5.3,0,0.7,0,56.8,0
2/1/2003 21:15,20.8,0,34.7,0,9.5,0,7.7,0,0.4,0,5.3,0,0.6,0,57.3,0
2/1/2003 21:30,20.8,0,34.1,0,9.4,0,7.6,0,0.6,0,5.4,0,0.4,0,57.8,0
2/1/2003 21:45,20.7,0,33.9,0,9.4,0,7.8,0,0.5,0,4.9,0,0.3,0,58.3,0
2/1/2003 22:00,20.3,0,34,0,9.3,0,7.9,0,0.1,0,5,0,0.2,0,58.8,0
2/1/2003 22:15,20.5,0,33.8,0,9.3,0,7.9,0,-0.2,0,4.9,0,0.1,0,58.3,0
2/1/2003 22:30,20.3,0,34.3,0,9.3,0,8,0,-0.3,0,5,0,0,0,57.8,0
2/1/2003 22:45,19,0,34.8,0,9.3,0,7.9,0,-0.3,0,4.9,0,-0.2,0,57.3,0
2/1/2003 23:00,17.5,0,37,0,9.5,0,7.9,0,-0.5,0,4.9,0,-0.3,0,56.8,0
2/1/2003 23:15,16.3,0,39,0,9.6,0,7.8,0,-0.5,0,5,0,-0.5,0,57,0
2/1/2003 23:30,15.5,0,39.8,0,9.6,0,7.7,0,-0.5,0,5.1,0,-0.6,0,57.3,0
2/1/2003 23:45,14.9,0,40.2,0,9.6,0,7.6,0,-0.6,0,5.1,0,-0.8,0,57.5,0
2/2/2003 0:00,14.5,0,40.6,0,9.5,0,7.6,0,-0.6,0,5.2,0,-1,0,57.8,0
2/2/2003 0:15,14.1,0,41,0,9.5,0,7.5,0,-0.7,0,5.3,0,-1.1,0,57.8,0
2/2/2003 0:30,13.7,0,41.3,0,9.4,0,7.4,0,-0.7,0,5.3,0,-1.1,0,57.8,0
2/2/2003 0:45,13.3,0,41.5,0,9.4,0,7.3,0,-0.8,0,5.4,0,-1.2,0,57.8,0
2/2/2003 1:00,13,0,41.8,0,9.4,0,7.2,0,-0.7,0,5.5,0,-1.3,0,57.8,0
2/2/2003 1:15,12.7,0,42,0,9.3,0,7.1,0,-0.8,0,5.6,0,-1.3,0,57,0
2/2/2003 1:30,12.4,0,42.2,0,9.3,0,7,0,-0.9,0,5.6,0,-1.4,0,56.3,0
2/2/2003 1:45,12.1,0,42.3,0,9.2,0,6.9,0,-0.9,0,5.7,0,-1.4,0,55.5,0
2/2/2003 2:00,11.9,0,42.4,0,9.2,0,6.8,0,-1,0,5.7,0,-1.5,0,54.8,0
2/2/2003 2:15,11.6,0,42.6,0,9.2,0,6.7,0,-1.1,0,5.8,0,-1.5,0,54.3,0
2/2/2003 2:30,11.4,0,42.8,0,9.1,0,6.6,0,-1.2,0,5.8,0,-1.5,0,53.8,0
2/2/2003 2:45,11.1,0,42.9,0,9.1,0,6.6,0,-1.2,0,5.7,0,-1.6,0,53.3,0
2/2/2003 3:00,10.9,0,42.9,0,9.1,0,6.5,0,-1.3,0,5.8,0,-1.6,0,52.8,0
2/2/2003 3:15,10.6,0,43.1,0,9,0,6.4,0,-1.3,0,5.8,0,-1.9,0,53.3,0
2/2/2003 3:30,10.4,0,43.1,0,9,0,6.3,0,-1.4,0,5.9,0,-2.1,0,53.8,0
2/2/2003 3:45,10.3,0,43.2,0,8.9,0,6.3,0,-1.4,0,5.9,0,-2.4,0,54.3,0
2/2/2003 4:00,10.1,0,43.2,0,8.8,0,6.2,0,-1.5,0,6,0,-2.7,0,54.8,0
2/2/2003 4:15,9.9,0,43.4,0,8.8,0,6.1,0,-1.6,0,6,0,-2.8,0,55,0
2/2/2003 4:30,9.7,0,43.6,0,8.7,0,6.1,0,-1.7,0,6.1,0,-2.9,0,55.3,0
2/2/2003 4:45,9.5,0,43.7,0,8.6,0,6,0,-1.9,0,6.1,0,-3,0,55.5,0
2/2/2003 5:00,9.4,0,43.8,0,8.7,0,5.9,0,-2.1,0,5.8,0,-3.1,0,55.8,0
2/2/2003 5:15,9.4,0,44,0,8.6,0,5.9,0,-2.4,0,5.8,0,-3.3,0,55.5,0
2/2/2003 5:30,14.3,0,34.8,0,8.6,0,5.8,0,-2.7,0,4.8,0,-3.5,0,55.3,0
2/2/2003 5:45,15.8,0,32.9,0,8.6,0,5.7,0,-2.9,0,4.9,0,-3.7,0,55,0
2/2/2003 6:00,15.8,0,31.9,0,8.7,0,5.6,0,-3.1,0,4.9,0,-3.9,0,54.8,0
2/2/2003 6:15,16.1,0,32.6,0,8.8,0,5.7,0,-3.2,0,5,0,-3.9,0,54.5,0
2/2/2003 6:30,18.6,0,32.6,0,8.7,0,5.9,0,-3.3,0,5,0,-3.9,0,54.3,0
2/2/2003 6:45,18.9,0,34.1,0,8.5,0,6,0,-3.6,0,5.1,0,-4,0,54,0
2/2/2003 7:00,19.2,0,33.4,0,8.4,0,6,0,-3.8,0,4.7,0,-4,0,53.8,0
2/2/2003 7:15,19.4,0,34.8,0,8.3,0,6.1,0,-3.9,0,4.7,0,-3.9,0,53.8,0
2/2/2003 7:30,19.5,0,34.7,0,8.2,0,6.1,0,-4.1,0,4.8,0,-3.8,0,53.8,0
2/2/2003 7:45,19.6,0,34.1,0,8,0,6.2,0,-4.3,0,4.9,0,-3.8,0,53.8,0
2/2/2003 8:00,19.9,0,34.1,0,8.1,0,6.4,0,-3.9,0,4.9,0,-3.7,0,53.8,0
2/2/2003 8:15,19.8,0,37.3,0,8.4,0,6.6,0,-3.3,0,5,0,-3,0,51.5,0
2/2/2003 8:30,20.3,0,38.5,0,8.7,0,6.8,0,-2.7,0,5.4,0,-2.2,0,49.3,0
2/2/2003 8:45,20.5,0,38.1,0,9,0,7.2,0,-2.1,0,5.4,0,-1.5,0,47,0
2/2/2003 9:00,20.3,0,38,0,8.9,0,7.4,0,-1.6,0,5.4,0,-0.8,0,44.8,0
2/2/2003 9:15,20.3,0,35,0,8.7,0,7.4,0,-1.2,0,5.5,0,-0.1,0,42.8,0
2/2/2003 9:30,20.8,0,33.4,0,8.8,0,7.5,0,-0.6,0,5.6,0,0.6,0,40.8,0
2/2/2003 9:45,20.9,0,33.4,0,9.3,0,7.7,0,0.2,0,5.7,0,1.4,0,38.8,0
2/2/2003 10:00,18.6,0,36.3,0,9.9,0,8.1,0,0.8,0,5.7,0,2.1,0,36.8,0
2/2/2003 10:15,17.6,0,37.9,0,10.4,0,8.5,0,1.4,0,5.1,0,2.5,0,36.5,0
2/2/2003 10:30,17.2,0,37.8,0,10.8,0,8.9,0,1.9,0,5.1,0,2.9,0,36.3,0
2/2/2003 10:45,16.9,0,37.8,0,11.3,0,9.5,0,2.4,0,5.2,0,3.4,0,36,0
2/2/2003 11:00,16.8,0,38.1,0,11.6,0,10.1,0,2.8,0,5.2,0,3.8,0,35.8,0
2/2/2003 11:15,16.5,0,38.4,0,11.9,0,10.7,0,3.1,0,5.3,0,3.9,0,34.8,0
2/2/2003 11:30,16.3,0,38.8,0,12,0,11.1,0,3.5,0,5.3,0,4,0,33.8,0
2/2/2003 11:45,15.9,0,39.1,0,11.6,0,11.2,0,3.7,0,5.3,0,4.1,0,32.8,0
2/2/2003 12:00,15.3,0,36.9,0,11.5,0,11.2,0,4.1,0,5.4,0,4.2,0,31.8,0
2/2/2003 12:15,15,0,39.4,0,11.4,0,11.3,0,4.6,0,5.1,0,4.1,0,31.5,0
2/2/2003 12:30,16.1,0,40.3,0,11.4,0,11.4,0,4.9,0,-33.2,0,4,0,31.3,0
2/2/2003 12:45,16.2,0,40.9,0,11.5,0,11.6,0,5.2,0,-32.9,0,4,0,31,0
2/2/2003 13:00,16.4,0,43.7,0,11.5,0,11.7,0,5.4,0,-32.6,0,3.9,0,30.8,0
2/2/2003 13:15,16.5,0,45.3,0,11.3,0,11.7,0,5.7,0,-32.2,0,4.1,0,31.3,0
2/2/2003 13:30,16.3,0,43.2,0,11.3,0,11.7,0,5.8,0,-31.9,0,4.3,0,31.8,0
2/2/2003 13:45,16.1,0,44.1,0,11.3,0,11.6,0,5.6,0,-31.9,0,4.5,0,32.3,0
2/2/2003 14:00,16.4,0,44.2,0,11.2,0,11.4,0,5.7,0,-31.5,0,4.7,0,32.8,0
2/2/2003 14:15,16.2,0,44.3,0,11.2,0,11.3,0,5.8,0,-31.1,0,4.6,0,32.8,0
2/2/2003 14:30,16,0,45.1,0,11.1,0,11.1,0,5.9,0,-30.9,0,4.5,0,32.8,0
2/2/2003 14:45,15.7,0,45.5,0,10.9,0,10.9,0,5.8,0,-30.4,0,4.4,0,32.8,0
2/2/2003 15:00,15.5,0,46.1,0,10.7,0,10.7,0,5.8,0,-30,0,4.3,0,32.8,0
2/2/2003 15:15,15.4,0,46.6,0,10.6,0,10.5,0,5.9,0,-29.8,0,4.3,0,33,0
2/2/2003 15:30,15.3,0,47.4,0,10.5,0,10.3,0,5.8,0,-29.1,0,4.3,0,33.3,0
2/2/2003 15:45,15.1,0,47.6,0,10.4,0,10.2,0,5.7,0,-29.1,0,4.4,0,33.5,0
2/2/2003 16:00,14.9,0,48,0,10.3,0,10,0,5.5,0,-29.2,0,4.4,0,33.8,0
2/2/2003 16:15,14.8,0,48.8,0,10.2,0,9.9,0,5.3,0,-28.8,0,4.2,0,34,0
2/2/2003 16:30,14.7,0,48.6,0,10.1,0,9.8,0,5.1,0,5.7,0,4,0,34.3,0
2/2/2003 16:45,18.2,0,41.1,0,10,0,9.7,0,4.9,0,5.3,0,3.9,0,34.5,0
2/2/2003 17:00,19.3,0,40.7,0,9.9,0,9.6,0,4.8,0,5.4,0,3.7,0,34.8,0
2/2/2003 17:15,18.3,0,33.4,0,9.9,0,9.5,0,4.6,0,5.3,0,3.5,0,35.5,0
2/2/2003 17:30,19.5,0,32,0,9.8,0,9.4,0,4.5,0,5.3,0,3.3,0,36.3,0
2/2/2003 17:45,18.8,0,33,0,9.7,0,9.3,0,4.3,0,5.4,0,3.2,0,37,0
2/2/2003 18:00,20.1,0,35.1,0,9.7,0,9.2,0,3.9,0,5.5,0,3,0,37.8,0
2/2/2003 18:15,20.7,0,35.9,0,9.6,0,9.2,0,3.4,0,5.5,0,2.6,0,41,0
2/2/2003 18:30,20.8,0,37.1,0,9.5,0,9.1,0,3.1,0,5.6,0,2.2,0,44.3,0
2/2/2003 18:45,21,0,36.9,0,9.5,0,9,0,3,0,5.7,0,1.8,0,47.5,0
2/2/2003 19:00,21.1,0,36.3,0,9.4,0,9,0,2.7,0,5.7,0,1.4,0,50.8,0
2/2/2003 19:15,21.5,0,38.6,0,9.4,0,8.9,0,2.5,0,5.8,0,1.3,0,51.8,0
2/2/2003 19:30,21.5,0,37.6,0,9.4,0,8.7,0,2.4,0,5.9,0,1.2,0,52.8,0
2/2/2003 19:45,21.7,0,36.3,0,9.4,0,8.6,0,2.2,0,5.7,0,1.2,0,53.8,0
2/2/2003 20:00,21.5,0,36.2,0,9.4,0,8.5,0,2.1,0,5.7,0,1.1,0,54.8,0
2/2/2003 20:15,21.6,0,36.1,0,9.4,0,8.4,0,1.9,0,5.8,0,1,0,55,0
2/2/2003 20:30,21.7,0,35.3,0,9.4,0,8.3,0,1.8,0,5.8,0,1,0,55.3,0
2/2/2003 20:45,21.6,0,35.3,0,9.4,0,8.2,0,1.6,0,5.9,0,0.9,0,55.5,0
2/2/2003 21:00,21.5,0,35.9,0,9.3,0,8.1,0,1.5,0,6,0,0.9,0,55.8,0
2/2/2003 21:15,21.3,0,35.6,0,9.3,0,8,0,1.5,0,5.1,0,0.8,0,55.8,0
2/2/2003 21:30,21.1,0,35.3,0,9.3,0,7.9,0,1.4,0,5,0,0.7,0,55.8,0
2/2/2003 21:45,21.1,0,35,0,9.5,0,7.8,0,1.4,0,5.1,0,0.7,0,55.8,0
2/2/2003 22:00,21.2,0,35,0,9.5,0,7.7,0,1.3,0,5.1,0,0.6,0,55.8,0
2/2/2003 22:15,21.1,0,35.1,0,9.5,0,7.6,0,1.3,0,5.2,0,0.5,0,56.3,0
2/2/2003 22:30,21.1,0,34.6,0,9.6,0,7.6,0,1.3,0,5.2,0,0.5,0,56.8,0
2/2/2003 22:45,19,0,37.3,0,9.8,0,7.6,0,1.2,0,5,0,0.4,0,57.3,0
2/2/2003 23:00,17.7,0,38.6,0,9.9,0,7.6,0,1.1,0,5,0,0.4,0,57.8,0
2/2/2003 23:15,16.8,0,40.6,0,9.9,0,7.8,0,1.2,0,5.1,0,0.5,0,56.3,0
2/2/2003 23:30,16.1,0,41.1,0,9.9,0,7.9,0,1.2,0,5.2,0,0.6,0,54.8,0
2/2/2003 23:45,15.6,0,41.7,0,9.9,0,7.9,0,1.2,0,5.3,0,0.8,0,53.3,0
2/3/2003 0:00,15,0,42.2,0,9.9,0,7.8,0,1.2,0,5.3,0,0.9,0,51.8,0
2/3/2003 0:15,14.6,0,42.8,0,9.9,0,7.8,0,1.2,0,5.4,0,0.7,0,52,0
2/3/2003 0:30,14.2,0,43.2,0,9.9,0,7.7,0,1.2,0,5.5,0,0.6,0,52.3,0
2/3/2003 0:45,13.9,0,43.5,0,9.9,0,7.6,0,1.1,0,5.5,0,0.4,0,52.5,0
2/3/2003 1:00,13.6,0,43.6,0,9.9,0,7.5,0,0.9,0,5.6,0,0.3,0,52.8,0
2/3/2003 1:15,13.3,0,43.9,0,9.9,0,7.5,0,0.8,0,5.7,0,0.1,0,53.5,0
2/3/2003 1:30,13.1,0,44.1,0,9.9,0,7.4,0,0.6,0,5.7,0,-0.1,0,54.3,0
2/3/2003 1:45,12.8,0,44.3,0,9.9,0,7.3,0,0.4,0,5.8,0,-0.4,0,55,0
2/3/2003 2:00,12.6,0,44.5,0,9.9,0,7.3,0,0.2,0,5.9,0,-0.6,0,55.8,0
2/3/2003 2:15,12.4,0,44.6,0,9.8,0,7.2,0,0.1,0,5.9,0,-0.8,0,56.3,0
2/3/2003 2:30,12.1,0,44.6,0,9.8,0,7.2,0,-0.1,0,5.9,0,-1,0,56.8,0
2/3/2003 2:45,11.9,0,44.7,0,9.8,0,7.1,0,-0.2,0,5.9,0,-1.3,0,57.3,0
2/3/2003 3:00,11.7,0,44.8,0,9.7,0,7,0,-0.3,0,6,0,-1.5,0,57.8,0
2/3/2003 3:15,11.4,0,44.9,0,9.7,0,7,0,-0.4,0,5.8,0,-1.6,0,57.8,0
2/3/2003 3:30,11.2,0,45.1,0,9.7,0,6.9,0,-0.6,0,5.9,0,-1.7,0,57.8,0
2/3/2003 3:45,11,0,45.1,0,9.7,0,6.9,0,-0.7,0,5.9,0,-1.9,0,57.8,0
2/3/2003 4:00,10.8,0,45.3,0,9.6,0,6.8,0,-0.9,0,6,0,-2,0,57.8,0
2/3/2003 4:15,10.6,0,45.2,0,9.5,0,6.8,0,-1,0,6,0,-2.1,0,58.5,0
2/3/2003 4:30,10.4,0,45.3,0,9.5,0,6.7,0,-1.1,0,6,0,-2.2,0,59.3,0
2/3/2003 4:45,10.2,0,45.4,0,9.4,0,6.6,0,-1.3,0,6.1,0,-2.3,0,60,0
2/3/2003 5:00,10,0,45.4,0,9.4,0,6.5,0,-1.4,0,6.1,0,-2.4,0,60.8,0
2/3/2003 5:15,9.9,0,45.3,0,9.3,0,6.5,0,-1.6,0,6.1,0,-2.5,0,61,0
2/3/2003 5:30,9.7,0,45.5,0,9.3,0,6.4,0,-1.7,0,6.2,0,-2.6,0,61.3,0
2/3/2003 5:45,9.6,0,45.6,0,9.2,0,6.3,0,-2,0,6.2,0,-2.8,0,61.5,0
2/3/2003 6:00,10,0,44.9,0,9.2,0,6.2,0,-2.5,0,5.5,0,-2.9,0,61.8,0
2/3/2003 6:15,11.1,0,45.1,0,9.2,0,6.2,0,-2.8,0,5.3,0,-2.9,0,62,0
2/3/2003 6:30,16.5,0,33.3,0,9.2,0,6.1,0,-3,0,5.5,0,-2.9,0,62.3,0
2/3/2003 6:45,16.5,0,32.7,0,9.3,0,6.8,0,-3.1,0,4.8,0,-2.9,0,62.5,0
2/3/2003 7:00,17,0,33.4,0,9.4,0,8.9,0,-3.2,0,4.8,0,-2.9,0,62.8,0
2/3/2003 7:15,18.9,0,32.6,0,9.3,0,8.4,0,-3.2,0,4.9,0,-2.5,0,61,0
2/3/2003 7:30,19,0,33.3,0,9.2,0,8.1,0,-3.1,0,4.9,0,-2.1,0,59.3,0
2/3/2003 7:45,19.3,0,34.9,0,9,0,7.9,0,-2.8,0,4.7,0,-1.7,0,57.5,0
2/3/2003 8:00,19.7,0,35.9,0,9,0,8,0,-2.4,0,0,2,-1.3,0,55.8,0
2/3/2003 8:15,19.6,0,34.2,0,9.3,0,8,0,-1.8,0,0,2,-0.6,0,53.8,0
2/3/2003 8:30,20.4,0,36.6,0,9.7,0,8.1,0,-1.3,0,0,2,0.2,0,51.8,0
2/3/2003 8:45,20.8,0,38.5,0,10.1,0,8.4,0,-0.8,0,0,2,0.9,0,49.8,0
2/3/2003 9:00,18.7,0,49.7,0,10.6,0,8.9,0,-0.1,0,0,2,1.6,0,47.8,0
2/3/2003 9:15,17.9,0,48,0,10.9,0,9.3,0,0.6,0,0,2,2.4,0,45.5,0
2/3/2003 9:30,16.8,0,41.5,0,10.3,0,9.3,0,1.3,0,0,2,3.2,0,43.3,0
2/3/2003 9:45,14.7,0,36.7,0,10.1,0,9.4,0,1.9,0,0,2,4,0,41,0
2/3/2003 10:00,13.2,0,34.3,0,10,0,9.3,0,2.5,0,0,2,4.8,0,38.8,0
2/3/2003 10:15,12.4,0,32.6,0,10,0,9.2,0,3.1,0,0,2,5.3,0,37.3,0
2/3/2003 10:30,13.2,0,34.9,0,10.5,0,9.2,0,3.6,0,0,2,5.8,0,35.8,0
2/3/2003 10:45,13.8,0,36.9,0,11.2,0,9.3,0,4,0,0,2,6.3,0,34.3,0
2/3/2003 11:00,13.9,0,37.7,0,11.8,0,9.5,0,4.5,0,0,2,6.8,0,32.8,0
2/3/2003 11:15,14.4,0,38.9,0,12.3,0,9.7,0,4.9,0,0,2,7,0,31.8,0
2/3/2003 11:30,14.7,0,39.4,0,12.7,0,9.9,0,5.2,0,0,2,7.1,0,30.8,0
2/3/2003 11:45,14.9,0,39.6,0,12.9,0,10.2,0,5.6,0,0,2,7.3,0,29.8,0
2/3/2003 12:00,15.1,0,39.5,0,13.1,0,10.5,0,6,0,0,2,7.5,0,28.8,0
2/3/2003 12:15,15.1,0,39.6,0,13.1,0,10.7,0,6.3,0,0,2,7.8,0,28.8,0
2/3/2003 12:30,15.3,0,39.7,0,13.1,0,11,0,6.7,0,0,2,8,0,28.8,0
2/3/2003 12:45,15.5,0,39.7,0,13.1,0,11.2,0,7,0,0,2,8.3,0,28.8,0
2/3/2003 13:00,15.5,0,41.8,0,13,0,11.4,0,7.3,0,0,2,8.6,0,28.8,0
2/3/2003 13:15,15.8,0,43.5,0,12.9,0,11.5,0,7.6,0,0,2,8.6,0,28.5,0
2/3/2003 13:30,16,0,43.9,0,12.8,0,11.7,0,7.7,0,0,2,8.5,0,28.3,0
2/3/2003 13:45,16,0,42.5,0,12.4,0,11.4,0,8,0,0,2,8.5,0,28,0
2/3/2003 14:00,16,0,42,0,12.2,0,11.5,0,8.1,0,0,2,8.5,0,27.8,0
2/3/2003 14:15,15.9,0,41.6,0,12.1,0,11.5,0,8.2,0,0,2,8.3,0,28.5,0
2/3/2003 14:30,15.7,0,41.7,0,11.9,0,11.5,0,8.1,0,0,2,8,0,29.3,0
2/3/2003 14:45,15.7,0,44.5,0,11.8,0,11.3,0,8,0,0,2,7.8,0,30,0
2/3/2003 15:00,15.3,0,41.3,0,11.5,0,11.1,0,7.9,0,0,2,7.6,0,30.8,0
2/3/2003 15:15,15.2,0,41.3,0,11.3,0,11,0,7.9,0,0,2,7.3,0,31.3,0
2/3/2003 15:30,15.8,0,42,0,11.1,0,10.8,0,7.3,0,0,2,7,0,31.8,0
2/3/2003 15:45,16.3,0,42,0,11,0,10.6,0,7,0,0,2,6.8,0,32.3,0
2/3/2003 16:00,16.6,0,41.2,0,10.7,0,10.4,0,6.8,0,0,2,6.5,0,32.8,0
2/3/2003 16:15,16,0,40.6,0,10.6,0,10.2,0,6.7,0,0,2,6.1,0,34.8,0
2/3/2003 16:30,15.4,0,41.1,0,10.5,0,10,0,6.7,0,0,2,5.8,0,36.8,0
2/3/2003 16:45,15,0,41.8,0,10.5,0,9.9,0,6.6,0,0,2,5.4,0,38.8,0
2/3/2003 17:00,14.9,0,42.3,0,10.5,0,9.7,0,6.3,0,0,2,5.1,0,40.8,0
2/3/2003 17:15,14.8,0,44.5,0,10.5,0,9.6,0,5.9,0,0,2,4.8,0,41.3,0
2/3/2003 17:30,17.8,0,40.2,0,10.4,0,9.5,0,5.2,0,0,2,4.6,0,41.8,0
2/3/2003 17:45,18.8,0,38.3,0,10.4,0,9.4,0,4.9,0,0,2,4.3,0,42.3,0
2/3/2003 18:00,18.8,0,34.1,0,10.4,0,9.3,0,4.5,0,0,2,4.1,0,42.8,0
2/3/2003 18:15,19.1,0,34.1,0,10.3,0,9.3,0,4.2,0,0,2,3.9,0,43.3,0
2/3/2003 18:30,19.7,0,34.4,0,10.3,0,9.3,0,4,0,0,2,3.8,0,43.8,0
2/3/2003 18:45,19.1,0,32.7,0,10.2,0,9.3,0,3.8,0,0,2,3.6,0,44.3,0
2/3/2003 19:00,20.7,0,34.4,0,10.1,0,9.3,0,3.7,0,0,2,3.5,0,44.8,0
2/3/2003 19:15,21.1,0,35.3,0,10,0,9.3,0,3.7,0,0,2,3.3,0,46.3,0
2/3/2003 19:30,20.8,0,35.5,0,9.9,0,9.2,0,3.8,0,0,2,3.2,0,47.8,0
2/3/2003 19:45,20.6,0,36.5,0,9.8,0,9.2,0,3.7,0,0,2,3,0,49.3,0
2/3/2003 20:00,20.7,0,38.9,0,9.8,0,9.2,0,3.6,0,0,2,2.9,0,50.8,0
2/3/2003 20:15,20,0,39.1,0,9.7,0,9.2,0,3.5,0,0,2,2.8,0,51,0
2/3/2003 20:30,20.2,0,37.7,0,9.7,0,9.1,0,3.4,0,0,2,2.7,0,51.3,0
2/3/2003 20:45,20.4,0,37.1,0,9.6,0,9.1,0,3.1,0,0,2,2.6,0,51.5,0
2/3/2003 21:00,20.4,0,36.8,0,9.6,0,9.1,0,2.7,0,0,2,2.5,0,51.8,0
2/3/2003 21:15,20.4,0,36.5,0,9.5,0,9,0,2.4,0,0,2,2.2,0,52.8,0
2/3/2003 21:30,20.6,0,36.1,0,9.5,0,9,0,2,0,0,2,2,0,53.8,0
2/3/2003 21:45,19.8,0,37.4,0,9.5,0,9,0,1.8,0,0,2,1.7,0,54.8,0
2/3/2003 22:00,20.1,0,37.2,0,9.5,0,8.9,0,1.5,0,0,2,1.5,0,55.8,0
2/3/2003 22:15,20.1,0,36.7,0,9.5,0,8.9,0,1.2,0,0,2,1.1,0,56.8,0
2/3/2003 22:30,19.9,0,37.3,0,9.5,0,8.9,0,1,0,0,2,0.7,0,57.8,0
2/3/2003 22:45,18,0,39.4,0,9.8,0,8.8,0,0.7,0,0,2,0.2,0,58.8,0
2/3/2003 23:00,16.9,0,40.8,0,9.9,0,8.6,0,0.5,0,0,2,-0.2,0,59.8,0
2/3/2003 23:15,16,0,42,0,9.9,0,8.6,0,0.4,0,0,2,-0.4,0,61.3,0
2/3/2003 23:30,15.3,0,42.5,0,10,0,8.6,0,0.1,0,0,2,-0.5,0,62.8,0
2/3/2003 23:45,14.8,0,42.9,0,10,0,8.6,0,0.1,0,0,2,-0.7,0,64.3,0
2/4/2003 0:00,14.4,0,43.4,0,10,0,8.5,0,-0.1,0,0,2,-0.9,0,65.8,0
2/4/2003 0:15,14,0,43.6,0,9.9,0,8.5,0,-0.2,0,0,2,-0.8,0,65.3,0
2/4/2003 0:30,13.6,0,43.8,0,9.9,0,8.4,0,-0.3,0,0,2,-0.7,0,64.8,0
2/4/2003 0:45,13.3,0,44,0,9.9,0,8.2,0,-0.4,0,0,2,-0.6,0,64.3,0
2/4/2003 1:00,13,0,44,0,9.9,0,8.1,0,-0.5,0,0,2,-0.5,0,63.8,0
2/4/2003 1:15,12.7,0,44.3,0,9.9,0,8,0,-0.6,0,0,2,-0.6,0,63.8,0
2/4/2003 1:30,12.5,0,44.3,0,9.8,0,7.9,0,-0.6,0,0,2,-0.7,0,63.8,0
2/4/2003 1:45,12.2,0,44.5,0,9.8,0,7.8,0,-0.4,0,0,2,-0.8,0,63.8,0
2/4/2003 2:00,12,0,44.6,0,9.8,0,7.7,0,-0.4,0,0,2,-0.9,0,63.8,0
2/4/2003 2:15,11.7,0,44.6,0,9.7,0,7.6,0,-0.3,0,0,2,-1.1,0,64.1,0
2/4/2003 2:30,11.5,0,44.7,0,9.7,0,7.5,0,-0.4,0,0,2,-1.3,0,64.3,0
2/4/2003 2:45,11.3,0,44.8,0,9.7,0,7.4,0,-0.4,0,0,2,-1.6,0,64.6,0
2/4/2003 3:00,11.1,0,44.8,0,9.6,0,7.3,0,-0.4,0,0,2,-1.8,0,64.8,0
2/4/2003 3:15,10.9,0,44.9,0,9.6,0,7.2,0,-0.6,0,0,2,-1.7,0,63.8,0
2/4/2003 3:30,10.7,0,45,0,9.6,0,7.1,0,-0.7,0,0,2,-1.6,0,62.8,0
2/4/2003 3:45,10.5,0,45,0,9.5,0,7.1,0,-0.7,0,0,2,-1.6,0,61.8,0
2/4/2003 4:00,10.3,0,45.2,0,9.5,0,7,0,-0.7,0,0,2,-1.5,0,60.8,0
2/4/2003 4:15,10.1,0,45.1,0,9.5,0,6.9,0,-0.6,0,0,2,-1.7,0,61.3,0
2/4/2003 4:30,9.9,0,45.1,0,9.4,0,6.9,0,-0.7,0,0,2,-2,0,61.8,0
2/4/2003 4:45,9.8,0,45.1,0,9.4,0,6.8,0,-0.9,0,0,2,-2.2,0,62.3,0
2/4/2003 5:00,9.7,0,45.2,0,9.3,0,6.7,0,-0.9,0,0,2,-2.5,0,62.8,0
2/4/2003 5:15,9.5,0,45.3,0,9.3,0,6.7,0,-1.1,0,0,2,-2.4,0,61.5,0
2/4/2003 5:30,9.4,0,45.3,0,9.3,0,6.6,0,-1,0,0,2,-2.2,0,60.3,0
2/4/2003 5:45,9.2,0,45.3,0,9.2,0,6.5,0,-0.9,0,0,2,-2.1,0,59,0
2/4/2003 6:00,9.1,0,45.3,0,9.2,0,6.5,0,-1,0,0,2,-2,0,57.8,0
2/4/2003 6:15,13.8,0,36.4,0,9.1,0,6.4,0,-1.3,0,0,2,-2.1,0,58.3,0
2/4/2003 6:30,15.4,0,33.5,0,9.1,0,6.3,0,-1.4,0,0,2,-2.2,0,58.8,0
2/4/2003 6:45,17.6,0,33,0,9.1,0,6.3,0,-1.4,0,0,2,-2.4,0,59.3,0
2/4/2003 7:00,18,0,35.6,0,9.3,0,6.3,0,-1.4,0,0,2,-2.5,0,59.8,0
2/4/2003 7:15,18.9,0,34.8,0,9.2,0,6.3,0,-1.4,0,0,2,-2.1,0,58.8,0
2/4/2003 7:30,19.1,0,35.6,0,9,0,6.3,0,-1.2,0,0,2,-1.7,0,57.8,0
2/4/2003 7:45,19.2,0,34.9,0,8.9,0,6.2,0,-1,0,0,2,-1.4,0,56.8,0
2/4/2003 8:00,19.5,0,36.5,0,9,0,6.2,0,-0.6,0,0,2,-1,0,55.8,0
2/4/2003 8:15,19.8,0,39.6,0,9.2,0,6.2,0,-0.3,0,0,2,-0.4,0,54,0
2/4/2003 8:30,20,0,42.3,0,9.4,0,6.6,0,0.2,0,0,2,0.3,0,52.3,0
2/4/2003 8:45,20.3,0,41.5,0,9.7,0,7.3,0,0.8,0,0,2,0.9,0,50.5,0
2/4/2003 9:00,18.9,0,44.2,0,9.8,0,7.8,0,1.2,0,0,2,1.5,0,48.8,0
2/4/2003 9:15,15.8,0,29.7,0,9.6,0,8.1,0,2,0,0,2,2.5,0,46,0
2/4/2003 9:30,15.2,0,34.4,0,9.4,0,8.3,0,2.4,0,0,2,3.4,0,43.3,0
2/4/2003 9:45,16,0,36.6,0,9.4,0,8.6,0,2.8,0,0,2,4.4,0,40.5,0
2/4/2003 10:00,16,0,38,0,9.6,0,9.1,0,3.1,0,0,2,5.4,0,37.8,0
2/4/2003 10:15,16.4,0,40.9,0,9.8,0,9.6,0,3.4,0,0,2,5.6,0,35.8,0
2/4/2003 10:30,18.8,0,35.8,0,10.5,0,10.1,0,4,0,0,2,5.9,0,33.8,0
2/4/2003 10:45,18.6,0,37.1,0,11.2,0,10.7,0,4.3,0,0,2,6.1,0,31.8,0
2/4/2003 11:00,19,0,36.9,0,11.7,0,11.2,0,4.7,0,0,2,6.4,0,29.8,0
2/4/2003 11:15,18.9,0,35.9,0,12.1,0,11.6,0,5.1,0,0,2,6.5,0,29.5,0
2/4/2003 11:30,18.7,0,33.7,0,12.3,0,12,0,5.5,0,0,2,6.7,0,29.3,0
2/4/2003 11:45,15.7,0,37.8,0,12.5,0,12.5,0,5.8,0,0,2,6.8,0,29,0
2/4/2003 12:00,15.1,0,38.1,0,12.6,0,12.8,0,6.2,0,0,2,7,0,28.8,0
2/4/2003 12:15,16.2,0,39,0,12.6,0,13.1,0,6.4,0,0,2,7,0,28.8,0
2/4/2003 12:30,16.7,0,40.2,0,12.6,0,13.2,0,6.9,0,0,2,7.1,0,28.8,0
2/4/2003 12:45,17,0,41.4,0,12.4,0,13.4,0,7.4,0,0,2,7.1,0,28.8,0
2/4/2003 13:00,16.6,0,40.7,0,12.3,0,13.4,0,7.7,0,0,2,7.2,0,28.8,0
2/4/2003 13:15,16.3,0,41.8,0,12.2,0,13.1,0,7.8,0,0,2,7.4,0,28.5,0
2/4/2003 13:30,16.2,0,42.4,0,12.1,0,13,0,8.1,0,0,2,7.6,0,28.3,0
2/4/2003 13:45,16.1,0,42.7,0,12.1,0,12.9,0,8.2,0,0,2,7.9,0,28,0
2/4/2003 14:00,15.8,0,42.5,0,11.9,0,12.7,0,8.2,0,0,2,8.1,0,27.8,0
2/4/2003 14:15,15.6,0,42.7,0,11.8,0,12.4,0,8.2,0,0,2,8,0,27.8,0
2/4/2003 14:30,15.4,0,43.6,0,11.7,0,12.2,0,8.4,0,0,2,8,0,27.8,0
2/4/2003 14:45,15.1,0,43.5,0,11.5,0,12,0,8.4,0,0,2,7.9,0,27.8,0
2/4/2003 15:00,15,0,43.3,0,11.4,0,11.9,0,8.5,0,0,2,7.9,0,27.8,0
2/4/2003 15:15,14.8,0,43.6,0,11.3,0,11.7,0,8.5,0,0,2,7.5,0,30.8,0
2/4/2003 15:30,14.7,0,43.3,0,11.3,0,11.5,0,8.5,0,0,2,7,0,33.8,0
2/4/2003 15:45,14.6,0,43.5,0,11.2,0,11.4,0,8.3,0,0,2,6.6,0,36.8,0
2/4/2003 16:00,14.5,0,43.6,0,11.1,0,11.2,0,8.2,0,0,2,6.2,0,39.8,0
2/4/2003 16:15,14.4,0,44,0,11.1,0,11.1,0,8,0,0,2,6,0,40.8,0
2/4/2003 16:30,14.3,0,44.7,0,11,0,10.9,0,7.5,0,0,2,5.7,0,41.8,0
2/4/2003 16:45,14.2,0,45.7,0,10.9,0,10.8,0,7.2,0,0,2,5.5,0,42.8,0
2/4/2003 17:00,13.1,0,44.5,0,10.8,0,10.7,0,6.8,0,0,2,5.3,0,43.8,0
2/4/2003 17:15,13.5,0,42.5,0,10.7,0,10.5,0,5.9,0,0,2,5,0,44.5,0
2/4/2003 17:30,16.2,0,36.4,0,10.6,0,10.4,0,5.5,0,0,2,4.7,0,45.3,0
2/4/2003 17:45,17,0,34.5,0,10.5,0,10.2,0,5.1,0,0,2,4.4,0,46,0
2/4/2003 18:00,16.9,0,34.4,0,10.5,0,10.1,0,4.8,0,0,2,4.1,0,46.8,0
2/4/2003 18:15,17.8,0,33.7,0,10.4,0,10,0,4.7,0,0,2,3.8,0,49.3,0